Location: ??????
(41.3164°N, 22.6615°E)
Time: 20:48:57
(UTC+00:00)

SMAP - Pass Details

Date: 16 October 2021
Orbit: 681 x 683 km, 98.1° (Epoch: 29 November)

Event Time Altitude Azimuth Distance (km) Brightness Sun altitude
Rises 16:19:55 0° 181° (S) 3,030 6.5 -7.0°
Reaches altitude 10° 16:22:13 10° 187° (S) 2,120 5.8 -7.4°
Maximum altitude 16:26:41 47° 261° (W) 911 4.3 -8.2°
Drops below altitude 10° 16:31:11 10° 335° (NNW) 2,136 5.9 -9.1°
Sets 16:33:31 0° 341° (NNW) 3,056 6.6 -9.5°
